Estación de San Ignacio
Ultimos registro cada 15 minutos 44
| N° | Estación | Fecha / Hora | Temperatura | Humedad | Lluvia | Velocidad | Dirección | Radiación | Presion |
| 44 | San Ignacio | 10-05-2026 11:00 | 12,1 | 67 | 0 | 0,9 | 40 | 25 | 1031,9 |
| 43 | San Ignacio | 10-05-2026 10:45 | 12,1 | 67 | 0 | 0,9 | 40 | 25 | 1031,9 |
| 42 | San Ignacio | 10-05-2026 10:30 | 11,5 | 67 | 0 | 0,9 | 57 | 46 | 1032,2 |
| 41 | San Ignacio | 10-05-2026 10:15 | 10,9 | 69 | 0 | 2,7 | 335 | 40 | 1032,2 |
| 40 | San Ignacio | 10-05-2026 10:00 | 9,8 | 72 | 0 | 1,8 | 321 | 37 | 1032,5 |
| 39 | San Ignacio | 10-05-2026 09:45 | 9,8 | 72 | 0 | 1,8 | 321 | 37 | 1032,5 |
| 38 | San Ignacio | 10-05-2026 09:30 | 9,1 | 74 | 0 | 0,4 | 19 | 21 | 1032,5 |
| 37 | San Ignacio | 10-05-2026 09:15 | 8,6 | 75 | 0 | 0 | 340 | 21 | 1032,7 |
| 36 | San Ignacio | 10-05-2026 09:00 | 7,4 | 78 | 0 | 0,4 | 340 | 19 | 1032,5 |
| 35 | San Ignacio | 10-05-2026 08:45 | 7,4 | 78 | 0 | 0,4 | 340 | 19 | 1032,5 |
| 34 | San Ignacio | 10-05-2026 08:30 | 7,1 | 79 | 0 | 0,4 | 16 | 16 | 1032,5 |
| 33 | San Ignacio | 10-05-2026 08:15 | 6,8 | 79 | 0 | 0 | 350 | 14 | 1032,4 |
| 32 | San Ignacio | 10-05-2026 08:00 | 6,6 | 80 | 0 | 1,3 | 32 | 7 | 1032 |
| 31 | San Ignacio | 10-05-2026 07:45 | 6,6 | 80 | 0 | 1,3 | 32 | 7 | 1032 |
| 30 | San Ignacio | 10-05-2026 07:30 | 6,4 | 80 | 0 | 2,2 | 338 | 0 | 1032,1 |
| 29 | San Ignacio | 10-05-2026 07:15 | 6,3 | 80 | 0 | 1,3 | 355 | 0 | 1032,1 |
| 28 | San Ignacio | 10-05-2026 07:00 | 6,6 | 80 | 0 | 0,4 | 355 | 0 | 1032,1 |
| 27 | San Ignacio | 10-05-2026 06:45 | 6,6 | 80 | 0 | 0,4 | 355 | 0 | 1032,1 |
| 26 | San Ignacio | 10-05-2026 06:30 | 6,6 | 80 | 0 | 1,8 | 9 | 0 | 1032 |
| 25 | San Ignacio | 10-05-2026 06:15 | 6,6 | 80 | 0 | 1,3 | 18 | 0 | 1032 |
| 24 | San Ignacio | 10-05-2026 06:00 | 6,7 | 80 | 0 | 0,4 | 50 | 0 | 1032 |
| 23 | San Ignacio | 10-05-2026 05:45 | 6,7 | 80 | 0 | 0,4 | 50 | 0 | 1032 |
| 22 | San Ignacio | 10-05-2026 05:30 | 6,7 | 80 | 0 | 1,8 | 48 | 0 | 1031,8 |
| 21 | San Ignacio | 10-05-2026 05:15 | 6,7 | 80 | 0 | 0,4 | 347 | 0 | 1031,8 |
| 20 | San Ignacio | 10-05-2026 05:00 | 6,7 | 80 | 0 | 0,9 | 51 | 0 | 1031,8 |
| 19 | San Ignacio | 10-05-2026 04:45 | 6,7 | 80 | 0 | 0,9 | 15 | 0 | 1031,9 |
| 18 | San Ignacio | 10-05-2026 04:30 | 6,8 | 80 | 0 | 0,4 | 355 | 0 | 1032 |
| 17 | San Ignacio | 10-05-2026 04:15 | 6,7 | 81 | 0 | 0,9 | 28 | 0 | 1032,3 |
| 16 | San Ignacio | 10-05-2026 03:45 | 6,7 | 81 | 0 | 1,3 | 22 | 0 | 1032,2 |
| 15 | San Ignacio | 10-05-2026 03:30 | 6,7 | 81 | 0 | 0,4 | 28 | 0 | 1032,3 |
| 14 | San Ignacio | 10-05-2026 03:15 | 6,7 | 82 | 0 | 0,4 | 355 | 0 | 1032,4 |
| 13 | San Ignacio | 10-05-2026 03:00 | 6,7 | 82 | 0 | 1,8 | 25 | 0 | 1032,6 |
| 12 | San Ignacio | 10-05-2026 02:45 | 6,8 | 81 | 0 | 2,2 | 16 | 0 | 1032,8 |
| 11 | San Ignacio | 10-05-2026 02:30 | 6,9 | 81 | 0 | 0,9 | 14 | 0 | 1033 |
| 10 | San Ignacio | 10-05-2026 02:15 | 6,9 | 81 | 0 | 0 | 28 | 0 | 1033,1 |
| 9 | San Ignacio | 10-05-2026 02:00 | 7,2 | 81 | 0 | 0,9 | 26 | 0 | 1033,1 |
| 8 | San Ignacio | 10-05-2026 01:45 | 7,3 | 81 | 0 | 0,9 | 26 | 0 | 1033,1 |
| 7 | San Ignacio | 10-05-2026 01:30 | 7,3 | 81 | 0 | 0 | 19 | 0 | 1033,2 |
| 6 | San Ignacio | 10-05-2026 01:15 | 7,4 | 80 | 0 | 0 | 32 | 0 | 1033,3 |
| 5 | San Ignacio | 10-05-2026 01:00 | 7,7 | 80 | 0 | 0,4 | 25 | 0 | 1033,7 |
| 4 | San Ignacio | 10-05-2026 00:45 | 7,4 | 81 | 0 | 0,9 | 16 | 0 | 1033,9 |
| 3 | San Ignacio | 10-05-2026 00:30 | 7,2 | 81 | 0 | 0,4 | 11 | 0 | 1034 |
| 2 | San Ignacio | 10-05-2026 00:15 | 7,3 | 81 | 0 | 0,4 | 11 | 0 | 1034,1 |
| 1 | San Ignacio | 10-05-2026 00:00 | 7,4 | 81 | 0 | 0,4 | 11 | 0 | 1034,2 |